Weather History for PANN - September, 2012

Change the Weather History Date:

Saturday, September 29, 2012

  Actual Average Record
Temperature  
Mean Temperature 40 °F -  
Max Temperature 52 °F 40 °F 75 °F (2003)
Min Temperature 28 °F 25 °F 21 °F (2008)
Degree Days  
Heating Degree Days 25    
Moisture  
Dew Point 30 °F    
Average Humidity 87    
Maximum Humidity 100    
Minimum Humidity 68    
Precipitation  
Precipitation 0.16 in - - ()
Sea Level Pressure  
Sea Level Pressure 29.67 in    
Wind  
Wind Speed 1 mph (WSW)    
Max Wind Speed 8 mph    
Max Gust Speed -    
Visibility 8 miles    
Events Fog , Rain    
Averages and records for this station are not official NWS values.
T = Trace of Precipitation, MM = Missing Value Source: NWS Daily Summary

Daily Weather History Graph

Daily Weather History Graph

Search for Another Location

Airport or City:

Trip Planner

Search our weather history database for the weather conditions in past years. The results will help you decide how hot, cold, wet, or windy it might be!

Date:

Astronomy

Sep. 29, 2012 Rise Set
Actual Time 8:01 AM AKDT 7:29 PM AKDT
Civil Twilight 7:13 AM AKDT 8:17 PM AKDT
Nautical Twilight 6:15 AM AKDT 9:14 PM AKDT
Astronomical Twilight 5:12 AM AKDT 10:16 PM AKDT
Moon 6:45 PM AKDT (9/29) 7:55 AM AKDT (9/29)
Length of Visible Light 13h 03m
Length of Day
11h 27m
Full, 100% of the Moon is Illuminated
Sep 29
Full
Sep 29
Full
Oct 7
Last Quarter
Oct 15
New
Oct 21
First Quarter

Hourly Weather History & Observations

Time (AKDT) Temp. Windchill Dew Point Humidity Pressure Visibility Wind Dir Wind Speed Gust Speed Precip Events Conditions
12:43 AM 30.2 °F - 28.4 °F 93% 29.48 in 10.0 mi Calm Calm - N/A   Scattered Clouds
12:53 AM 30.9 °F - 28.0 °F 89% 29.51 in 10.0 mi Calm Calm - N/A   Clear
1:43 AM 28.4 °F - 24.8 °F 86% 29.49 in 10.0 mi Calm Calm - N/A   Mostly Cloudy
1:53 AM 28.9 °F - 26.1 °F 89% 29.52 in 10.0 mi Calm Calm - N/A   Overcast
2:00 AM 28.4 °F - 26.6 °F 93% 29.49 in 10.0 mi Calm Calm - N/A   Overcast
2:51 AM 30.2 °F - 26.6 °F 86% 29.49 in 10.0 mi Calm Calm - N/A   Mostly Cloudy
2:53 AM 30.0 °F - 27.0 °F 88% 29.52 in 10.0 mi Calm Calm - N/A   Mostly Cloudy
3:17 AM 28.4 °F - 26.6 °F 93% 29.50 in 10.0 mi Calm Calm - N/A   Overcast
3:53 AM 30.9 °F - 30.0 °F 96% 29.52 in 5.0 mi Calm Calm - N/A   Overcast
4:24 AM 28.4 °F - 26.6 °F 93% 29.50 in 10.0 mi Calm Calm - N/A   Scattered Clouds
4:53 AM 28.9 °F - 26.1 °F 89% 29.54 in 10.0 mi Calm Calm - N/A   Clear
5:53 AM 28.0 °F - 25.0 °F 88% 29.55 in 3.0 mi Calm Calm - N/A   Mostly Cloudy
6:13 AM 26.6 °F - 26.6 °F 100% 29.52 in 1.8 mi Calm Calm - N/A   Overcast
6:24 AM 26.6 °F - 24.8 °F 93% 29.52 in 0.5 mi Calm Calm - N/A Fog Light Freezing Fog
6:53 AM 26.1 °F - 25.0 °F 96% 29.56 in 0.5 mi Calm Calm - N/A Fog Light Freezing Fog
7:53 AM 30.0 °F - 28.9 °F 96% 29.57 in 0.5 mi Calm Calm - N/A Fog Light Freezing Fog
8:05 AM 30.2 °F - 28.4 °F 93% 29.55 in 2.0 mi Calm Calm - N/A   Overcast
8:13 AM 30.2 °F - 28.4 °F 93% 29.55 in 10.0 mi Calm Calm - N/A   Overcast
8:30 AM 30.2 °F - 28.4 °F 93% 29.56 in 1.8 mi Calm Calm - N/A   Overcast
8:53 AM 30.0 °F - 28.9 °F 96% 29.60 in 1.2 mi Calm Calm - N/A   Overcast
9:05 AM 30.2 °F - 28.4 °F 93% 29.58 in 2.5 mi Calm Calm - N/A   Overcast
9:13 AM 30.2 °F - 28.4 °F 93% 29.58 in 4.0 mi Calm Calm - N/A   Overcast
9:28 AM 30.2 °F - 28.4 °F 93% 29.59 in 10.0 mi Calm Calm - N/A   Overcast
9:41 AM 30.2 °F - 30.2 °F 100% 29.59 in 10.0 mi Calm Calm - N/A   Overcast
9:53 AM 30.9 °F 27.5 °F 30.0 °F 96% 29.63 in 10.0 mi Variable 3.5 mph - N/A   Overcast
10:04 AM 30.2 °F - 30.2 °F 100% 29.60 in 6.0 mi Calm Calm - N/A   Overcast
10:53 AM 30.9 °F - 30.0 °F 96% 29.65 in 10.0 mi Calm Calm - N/A   Overcast
11:53 AM 32.0 °F 27.5 °F 30.0 °F 92% 29.67 in 10.0 mi SW 4.6 mph - N/A   Overcast
12:53 PM 34.0 °F 29.8 °F 32.0 °F 92% 29.69 in 10.0 mi West 4.6 mph - N/A   Overcast
1:53 PM 35.1 °F 31.0 °F 30.9 °F 85% 29.71 in 10.0 mi Variable 4.6 mph - N/A   Overcast
2:08 PM 35.6 °F 30.7 °F 30.2 °F 81% 29.68 in 10.0 mi West 5.8 mph - N/A   Overcast
2:53 PM 36.0 °F 31.1 °F 30.0 °F 79% 29.73 in 10.0 mi Variable 5.8 mph - N/A   Overcast
3:16 PM 35.6 °F - 28.4 °F 75% 29.71 in 10.0 mi Calm Calm - N/A   Overcast
3:40 PM 37.4 °F 34.9 °F 28.4 °F 70% 29.71 in 10.0 mi Variable 3.5 mph - N/A   Overcast
3:48 PM 37.4 °F 34.9 °F 28.4 °F 70% 29.71 in 10.0 mi Variable 3.5 mph - N/A   Overcast
3:53 PM 37.9 °F - 28.9 °F 70% 29.74 in 10.0 mi Calm Calm - N/A   Overcast
4:53 PM 37.9 °F 32.7 °F 28.0 °F 68% 29.76 in 10.0 mi SW 6.9 mph - N/A   Scattered Clouds
5:03 PM 37.4 °F 32.1 °F 28.4 °F 70% 29.73 in 10.0 mi WSW 6.9 mph - N/A   Mostly Cloudy
5:31 PM 37.4 °F 31.4 °F 28.4 °F 70% 29.75 in 10.0 mi WSW 8.1 mph - N/A   Scattered Clouds
5:53 PM 36.0 °F 31.1 °F 30.0 °F 79% 29.79 in 10.0 mi West 5.8 mph - N/A   Clear
6:53 PM 34.0 °F 29.8 °F 30.0 °F 85% 29.81 in 10.0 mi West 4.6 mph - N/A   Partly Cloudy
7:53 PM 32.0 °F - 28.9 °F 88% 29.83 in 10.0 mi Calm Calm - N/A   Clear
8:53 PM 28.9 °F - 27.0 °F 92% 29.85 in 10.0 mi Calm Calm - N/A   Mostly Cloudy
9:53 PM 28.0 °F - 25.0 °F 88% 29.87 in 10.0 mi Calm Calm - N/A   Mostly Cloudy
10:53 PM 30.0 °F 26.5 °F 26.1 °F 85% 29.90 in 10.0 mi SW 3.5 mph - N/A   Clear
11:53 PM 30.0 °F - 27.0 °F 88% 29.91 in 10.0 mi Calm Calm - N/A   Mostly Cloudy